Location: Clatteringshaws Loch
(55.0508°N, 4.2860°W)
Time: 07:32:43
(UTC+01:00)

ALOS - Visible Passes

Search period start: 02 August 2014 00:00
Search period end: 12 August 2014 00:00
Orbit: 688 x 690 km, 98.0° (Epoch: 01 August)

Date Brightness Start Highest point End Pass type
(mag) Time Alt. Az. Time Alt. Az. Time Alt. Az.
02 Aug 2.6 22:02:20 10° S 22:07:00 68° WSW 22:11:42 10° NNW visible
02 Aug 5.0 23:43:46 10° WSW 23:45:26 12° W 23:47:06 10° WNW visible
03 Aug 3.8 22:41:38 10° SSW 22:45:51 33° W 22:50:07 10° NNW visible
04 Aug 4.7 23:21:53 10° SW 23:24:56 17° W 23:27:59 10° NW visible
05 Aug 3.2 22:21:00 10° S 22:25:32 48° W 22:30:05 10° NNW visible
06 Aug 4.3 23:00:41 10° SW 23:04:29 24° W 23:08:18 10° NW visible
07 Aug 2.6 22:00:35 10° S 22:05:15 70° WSW 22:09:57 10° NNW visible
07 Aug 4.9 23:41:52 10° WSW 23:43:39 12° W 23:45:27 10° WNW visible
08 Aug 3.7 22:39:50 10° SSW 22:44:05 34° W 22:48:23 10° NNW visible
09 Aug 2.3 21:40:20 10° SSE 21:45:01 83° ENE 21:49:44 10° NNW visible
09 Aug 4.7 23:20:02 10° SW 23:23:08 17° W 23:26:16 10° NW visible
10 Aug 3.1 22:19:12 10° S 22:23:45 49° W 22:28:19 10° NNW visible
11 Aug 4.2 22:58:51 10° SSW 23:02:41 25° W 23:06:32 10° NW visible
